Location: Janeiro
(34.9957°N, 76.7652°W)
Time: 02:27:50
(UTC+00:00)

Radarsat Rocket - Pass Details

Date: 14 December 2019
Orbit: 933 x 1492 km, 100.6° (Epoch: 26 January)

Event Time Altitude Azimuth Distance (km) Brightness Sun altitude
Rises 22:11:56 0° 167° (SSE) 3,817 7.3 -3.7°
Reaches altitude 10° 22:14:31 10° 169° (SSE) 2,804 6.6 -4.1°
Maximum altitude 22:20:42 77° 254° (WSW) 989 4.3 -5.3°
Drops below altitude 10° 22:26:32 10° 341° (NNW) 2,651 6.2 -6.4°
Sets 22:28:56 0° 343° (NNW) 3,594 6.9 -6.8°
